Location: Ehrke Reservoir
(40.0279°N, 99.6641°W)
Time: 04:49:00
(UTC+00:00)

Cosmos 1048 Rocket - Pass Details

Date: 20 January 2020
Orbit: 744 x 791 km, 74.0° (Epoch: 26 February)

Event Time Altitude Azimuth Distance (km) Brightness Sun altitude
Rises 00:40:34 0° 340° (NNW) 3,204 7.3 -11.3°
Reaches altitude 10° 00:42:56 10° 340° (NNW) 2,271 6.5 -11.7°
Maximum altitude 00:48:05 84° 253° (WSW) 754 4.0 -12.6°
Drops below altitude 10° 00:53:11 10° 165° (SSE) 2,250 6.4 -13.6°
Sets 00:55:31 0° 165° (SSE) 3,171 7.2 -14.0°
